This is the latest recevied weather packets stored in our database for station/object HOWARD. If no packets are shown the sender has not sent any weather packets the latest 10 day(s).
| Time | Temp. | Humidity | Pressure | Rain* | Wind** | Luminosity | Snow |
|---|---|---|---|---|---|---|---|
| 1777314697 | -1.11° C | 55% | 1005.3 hPa | 0 mm | - | - | - |
| 1777314097 | -1.11° C | 56% | 1005.1 hPa | 0 mm | - | - | - |
| 1777313497 | -1.67° C | 58% | 1005.2 hPa | 0 mm | - | - | - |
| 1777312896 | -2.22° C | 56% | 1005.3 hPa | 0 mm | - | - | - |
| 1777312297 | -1.67° C | 57% | 1005.2 hPa | 0 mm | - | - | - |
| 1777311697 | -1.67° C | 59% | 1005.3 hPa | 0 mm | - | - | - |
| 1777311097 | -1.67° C | 57% | 1005.3 hPa | 0 mm | - | - | - |
| 1777310498 | -1.67° C | 53% | 1005.2 hPa | 0 mm | - | - | - |
| 1777309897 | -1.67° C | - | 1005.3 hPa | 0 mm | - | - | - |
| 1777309297 | -1.67° C | 50% | 1004.5 hPa | 0 mm | - | - | - |
| 1777308697 | -1.67° C | 50% | 1004.5 hPa | 0 mm | - | - | - |
| 1777308097 | -1.67° C | 47% | 1004.5 hPa | 0 mm | - | - | - |
| 1777307497 | -1.11° C | 51% | 1004.4 hPa | 0 mm | - | - | - |
| 1777306897 | 0° C | 47% | 1004.3 hPa | 0 mm | - | - | - |
| 1777306297 | -1.11° C | 50% | 1004.2 hPa | 0 mm | - | - | - |
| 1777305697 | -1.67° C | 45% | 1004.2 hPa | 0 mm | - | - | - |
| 1777305096 | -1.67° C | 49% | 1004.3 hPa | 0 mm | - | - | - |
| 1777304497 | -2.22° C | 49% | 1004.1 hPa | 0 mm | - | - | - |
| 1777303896 | -2.22° C | 51% | 1004 hPa | 0 mm | - | - | - |
| 1777303297 | -2.22° C | 51% | 1004 hPa | 0 mm | - | - | - |
| 1777302697 | -2.22° C | 51% | 1003.8 hPa | 0 mm | - | - | - |
| 1777302097 | -1.67° C | 51% | 1003.8 hPa | 0 mm | - | - | - |
| 1777301496 | -2.22° C | 52% | 1003.8 hPa | 0 mm | - | - | - |
| 1777300897 | -2.78° C | 52% | 1003.7 hPa | 0 mm | - | - | - |
| 1777300296 | -3.33° C | 53% | 1003.5 hPa | 0 mm | - | - | - |
* Rain latest hour (hover to see other rain measurements)
** Current wind speed in m/s (hover to see current wind gust speed)